Regional Weather Roundup
Issued by NWS

Home | Current Version | Previous Version | Text Only | Print | Product List | Glossary Off
Versions: 1 2 3 4 5 6 7 8 9 10 11 12 13 14 15 16 17 18 19 20 21 22 23 24 25 26 27

000
ASUS45 KSLC 240110
RWRUT

UTAH REGIONAL WEATHER ROUNDUP
NATIONAL WEATHER SERVICE SALT LAKE CITY UT
700 PM MDT MON MAY 23 2016

UTZ001>011-023>025-240200-

NORTHERN UTAH

CITY           SKY/WX    TMP DP  RH WIND       PRES   REMARKS
BRIGHAM CITY     N/A     65  25  21 CALM      29.84F
HILL AFB       SUNNY     64  34  32 VRB2      29.84F
LOGAN            N/A     64  33  31 CALM      29.84F
OGDEN          MOSUNNY   65  32  29 NW8       29.83F
PROVO AIRPORT  MOSUNNY   66  32  28 NW5       29.82F
SALT LAKE CITY PTSUNNY   69  26  20 N7        29.81F
VERNAL         SUNNY     65  28  24 W7        29.84F
WENDOVER       MOSUNNY   64  34  32 N10       29.82S
HEBER CITY     MOSUNNY   63  25  23 SW12      29.84S
WEST JORDAN    SUNNY     64  32  29 CALM      29.84F

$$

UTZ012>022-026-027-240200-

SOUTHERN/CENTRAL UTAH

CITY           SKY/WX    TMP DP  RH WIND       PRES   REMARKS
BLANDING       SUNNY     69  12  11 SW7       29.94S
BRYCE CANYON   MOSUNNY   59  17  19 SW17      29.93F
CEDAR CITY     SUNNY     67  19  16 SW17G25   29.82F
DELTA          MOSUNNY   68  21  17 N6        29.79F
HANKSVILLE     SUNNY     77  18  10 W10       29.77F
MILFORD        MOSUNNY   70  16  12 SW18      29.78F
MOAB/CYNLANDS  MOSUNNY   75   9   8 SW9       29.76F
PRICE          CLOUDY    65  19  17 VRB6      29.84F
ST GEORGE      PTCLDY    81  23  12 SW14G23   29.72F
KANAB          SUNNY     73  14  10 SW10G17   29.83

$$

REGIONAL REPORTS     COLORADO/ARIZONA

CITY           SKY/WX    TMP DP  RH WIND       PRES   REMARKS
CRAIG, CO      CLOUDY    65  27  23 VRB3      29.89F
GRAND JUNCTION MOSUNNY   70  19  14 NW13      29.80F
RIFLE          PTSUNNY   67  24  19 W10       29.84R
MONTROSE       CLOUDY    70  13  11 W13       29.87R
CORTEZ         SUNNY     71  15  11 SW8       29.88F
PAGE, AZ       SUNNY     78  14   9 NE7       29.75F
GRAND CANYON   SUNNY     66  12  12 SW22G30   29.93S
KINGMAN        SUNNY     76  19  11 S22       29.79F
FLAGSTAFF      SUNNY     60  16  18 SW20G28   29.97F

$$

REGIONAL REPORTS    NEVADA/IDAHO/WYOMING

CITY           SKY/WX    TMP DP  RH WIND       PRES   REMARKS
LAS VEGAS, NV  MOSUNNY   80  21  11 SW17      29.65F
ELY            PTSUNNY   59  21  23 E13       29.82F
ELKO           CLOUDY    58  34  40 W10       29.84F
POCATELLO, ID  MOSUNNY   62  30  29 SW10      29.85F
BURLEY         CLOUDY    57  39  51 S16G24    29.84R
EVANSTON, WY   CLOUDY    54  27  35 W8        29.93F
ROCK SPRINGS   CLOUDY    53  28  38 SW9       29.94S
KEMMERER         N/A     52  23  32 W9G17     29.94S

$$




USA.gov is the U.S. government's official web portal to all federal, state and local government web resources and services.